Theta_e
286 285 283 283 283 283 282 282 282 282 282 282 283 283 283 284 285 284 285 284 285 285 285 285 285 285 284 284 284 285 285 286 286 286 286 286 286 287 286 286 286 285 285 285 285 284 284 284 284 284 284 284 283 283 284 285 285 286 285 285 285 284 286 288 289 290 288 289 292 293 293 295 295 295 295 296 297 298 299 299 299 300 300 301 302
284 283 282 281 282 281 280 281 282 281 281 281 282 283 283 283 284 284 284 284 284 284 285 286 285 285 284 285 284 284 284 284 284 285 285 286 286 286 286 285 285 285 285 285 284 284 284 283 283 283 283 283 284 284 284 284 284 284 284 283 285 284 284 287 288 289 288 288 287 288 290 293 294 295 295 296 297 298 298 298 299 299 299 301 303
283 284 282 282 281 280 280 280 281 283 282 281 283 282 282 282 283 284 283 284 284 284 284 284 284 285 284 284 284 283 284 284 284 284 285 285 285 285 285 285 284 284 284 284 284 284 283 283 283 283 283 283 283 282 283 282 283 282 283 282 282 284 284 287 288 290 287 289 289 287 286 287 291 293 295 295 297 298 299 299 300 300 301 303 304
283 283 282 281 281 281 280 279 280 281 282 281 281 282 281 283 282 282 283 283 283 284 286 284 284 284 284 284 284 283 283 284 284 284 284 284 284 285 284 284 284 284 284 284 283 283 283 283 283 283 283 283 282 282 282 282 282 282 282 282 282 280 283 284 288 289 288 287 284 286 286 286 284 288 291 293 296 296 296 297 299 300 302 304 308
284 283 283 281 280 280 280 280 280 280 281 281 281 281 281 282 282 282 283 283 283 285 285 286 284 284 283 282 283 283 283 282 282 282 283 283 283 283 283 283 283 283 283 283 283 283 283 283 283 283 282 282 282 282 281 281 281 282 282 281 281 281 280 283 285 287 287 288 286 285 284 284 285 287 289 289 293 294 295 297 299 300 301 301 300
285 284 283 282 281 281 280 280 279 280 281 282 282 282 282 282 282 282 282 282 282 283 283 284 284 282 281 281 281 280 280 280 280 280 281 281 281 282 282 282 282 282 282 282 283 283 282 283 283 282 282 282 282 282 281 281 281 281 281 281 281 282 281 281 281 285 286 287 289 288 287 284 284 287 287 283 292 294 294 295 296 297 298 297 298
284 284 284 282 281 281 280 279 280 280 281 282 281 281 281 281 281 281 282 281 282 282 282 284 281 281 280 281 281 280 279 280 281 282 281 281 282 281 282 282 282 281 282 282 282 282 282 282 282 282 282 281 282 281 281 281 281 281 281 281 281 282 282 280 280 281 282 283 285 286 287 288 289 287 284 286 284 290 294 294 295 297 298 297 297
284 284 283 283 282 281 280 280 280 280 281 281 280 280 280 280 280 280 281 283 281 282 281 282 281 281 280 280 280 280 280 280 281 280 281 281 281 281 281 281 281 281 281 281 281 282 282 281 282 281 281 281 281 281 280 281 281 281 281 281 281 281 281 280 279 280 279 280 284 285 287 288 289 290 289 286 285 283 287 293 295 295 296 296 297
284 283 283 283 282 281 281 280 280 280 281 280 280 280 280 279 280 279 279 281 281 280 280 280 281 281 280 280 279 281 281 280 281 281 280 280 279 280 279 279 280 280 281 281 281 281 281 281 281 281 280 280 281 280 280 280 280 280 280 280 280 280 281 281 280 279 280 280 282 283 284 284 286 287 288 288 285 284 285 287 289 294 295 296 297
283 284 284 283 282 281 281 281 280 280 281 281 281 280 279 279 279 279 279 278 279 278 280 280 279 281 280 279 278 279 279 279 279 278 278 279 278 278 278 278 278 279 279 280 280 280 280 280 280 280 280 280 280 280 280 280 280 280 280 280 279 279 280 280 280 280 281 282 282 281 280 281 282 283 285 285 286 286 284 285 288 289 288 292 296
282 283 283 283 282 281 280 280 280 280 280 280 279 279 278 279 279 278 278 278 279 278 278 278 278 278 278 278 278 278 278 278 277 277 277 277 277 277 277 277 278 278 278 279 279 279 279 280 280 280 280 280 280 279 279 279 279 279 279 279 279 279 279 280 280 281 281 281 280 280 279 279 279 280 281 283 284 284 284 284 287 289 289 290 294
282 281 281 280 279 279 279 279 279 279 279 279 279 278 278 278 278 278 278 277 277 277 277 277 277 277 277 277 277 278 277 277 276 276 276 276 276 276 276 276 277 277 277 277 278 279 279 279 279 279 279 279 278 279 279 279 279 279 279 279 279 279 279 279 280 280 280 279 279 279 279 280 280 281 283 284 284 284 284 283 284 286 288 290 293
281 280 280 279 279 279 278 279 279 279 278 279 278 278 278 277 278 278 277 277 277 277 277 277 277 277 277 277 277 278 277 277 276 276 276 275 275 275 275 275 276 276 276 276 277 277 278 278 278 278 278 278 278 278 278 279 279 279 278 278 278 278 278 278 278 278 278 277 277 278 279 280 281 284 284 284 284 284 284 282 284 287 285 287 291
280 280 280 279 279 279 279 279 279 279 279 278 278 278 278 277 277 278 278 277 277 276 276 276 276 276 277 277 276 277 276 276 276 275 275 275 275 275 275 274 274 275 275 275 277 277 277 277 278 277 278 278 278 278 278 279 279 278 278 278 277 278 278 278 278 278 278 278 278 278 278 280 281 281 282 283 283 283 282 282 283 285 287 287 290
279 279 280 280 279 279 279 279 279 279 279 279 278 278 278 277 276 278 277 276 276 276 276 276 276 276 276 276 276 276 275 275 275 276 275 275 274 274 274 274 274 275 275 276 276 276 277 277 277 277 277 277 278 278 278 278 278 278 278 278 278 278 278 278 278 278 277 277 278 278 279 280 280 280 281 281 283 283 283 283 283 281 283 286 288
279 279 279 280 280 279 279 279 279 279 279 279 278 278 277 277 276 277 277 276 276 276 276 276 276 276 275 275 275 275 276 276 275 275 274 274 273 273 273 274 274 274 275 275 276 276 276 276 277 277 277 277 277 278 278 278 278 277 277 277 277 278 277 277 277 278 277 278 278 278 279 279 280 281 281 282 282 283 283 284 284 282 280 280 286
279 279 279 279 279 279 280 279 279 279 279 278 278 277 277 277 276 276 276 275 275 276 275 275 275 274 275 274 274 274 274 273 273 273 273 273 273 273 273 273 274 274 275 275 275 276 276 276 276 276 276 277 277 277 277 277 277 277 276 276 276 277 277 276 277 277 277 277 277 277 277 277 278 278 279 279 280 282 284 284 285 283 283 282 282
279 279 279 279 279 280 279 280 280 279 279 278 277 277 277 277 276 276 275 275 275 275 275 275 274 274 274 274 274 273 273 273 272 272 272 272 272 273 273 273 273 274 274 274 275 275 275 275 275 275 275 276 276 276 276 276 277 276 276 276 276 276 276 276 276 276 276 276 276 276 277 277 278 278 279 280 281 282 282 283 283 283 284 283 284
278 278 278 279 279 279 279 279 279 279 279 278 277 276 276 276 276 276 275 275 275 275 275 274 274 273 273 273 273 272 272 272 272 272 272 271 271 272 272 272 272 273 273 273 273 274 274 274 274 274 274 275 275 275 276 276 276 275 276 276 276 276 275 275 276 276 276 276 276 276 277 277 278 279 279 279 280 280 280 281 282 284 285 285 285
278 278 278 279 279 279 279 279 278 278 277 276 276 275 275 275 276 274 274 274 274 273 274 273 273 273 272 272 272 272 272 272 271 271 271 271 271 271 271 271 272 272 272 273 272 272 272 272 273 273 273 274 274 274 275 275 275 275 275 275 275 275 275 274 274 275 275 275 275 275 276 276 277 277 277 277 277 278 280 281 282 283 284 286 287
279 279 278 278 279 279 279 278 278 277 276 275 275 275 274 274 274 275 274 273 273 273 272 272 272 272 272 271 271 271 271 271 271 271 270 270 271 271 271 271 272 271 272 271 271 271 272 272 272 272 273 273 273 273 274 275 274 274 274 274 274 274 274 273 273 273 274 274 274 274 275 276 277 276 276 277 278 279 280 281 282 282 282 284 286
279 279 278 278 278 278 277 277 276 275 275 274 275 274 273 273 273 273 273 272 272 272 272 272 272 271 271 271 271 271 271 270 270 270 270 270 270 270 271 271 270 271 271 270 270 271 271 272 271 272 272 272 272 273 273 273 273 272 272 273 273 273 273 272 272 272 272 273 273 273 274 274 275 275 276 275 276 276 276 277 278 280 281 283 287
279 278 278 278 278 277 277 276 275 275 275 274 274 274 274 273 272 272 272 272 272 272 272 271 271 271 270 270 270 270 270 270 269 269 269 270 270 270 270 270 269 270 270 270 270 271 271 271 271 271 271 271 271 271 272 271 271 271 271 271 272 272 271 271 271 271 271 272 272 272 273 274 275 274 274 275 275 275 275 275 277 279 280 282 285
278 277 277 277 277 276 276 275 274 274 274 274 274 274 273 272 272 272 271 271 271 271 271 271 270 270 270 270 269 269 269 269 269 269 269 269 269 269 269 269 269 269 269 270 270 270 270 270 269 269 269 269 269 270 270 270 269 269 269 269 270 270 270 270 270 270 271 271 271 271 272 273 273 273 273 273 274 275 275 276 277 279 280 282 284
277 276 276 276 276 275 276 276 275 275 274 274 273 273 272 272 271 271 271 271 270 271 270 270 269 269 269 269 269 269 268 268 268 269 268 269 269 269 269 268 269 269 269 269 269 269 268 268 267 267 267 267 267 268 268 268 268 268 268 268 268 268 269 269 270 270 271 270 270 271 272 273 273 272 273 273 273 273 274 275 276 279 280 282 284
277 276 275 275 276 276 276 276 275 275 274 274 273 273 272 271 271 271 270 270 270 270 270 269 269 268 268 268 268 268 268 268 268 268 268 268 268 268 268 268 268 267 267 267 267 266 266 266 266 266 266 266 266 266 266 266 267 267 267 267 267 267 268 268 269 269 269 270 270 270 271 272 272 272 272 272 273 273 273 274 277 279 281 282 283
276 276 276 276 275 275 276 275 275 275 274 274 273 272 271 271 270 270 269 269 269 269 269 268 268 268 267 268 268 267 268 267 268 267 267 267 267 267 266 266 266 265 265 265 265 265 265 265 265 265 265 265 265 265 265 265 266 266 266 266 266 266 267 267 268 268 269 270 270 270 271 272 272 272 272 272 272 272 273 274 275 277 278 279 281
276 275 275 275 276 276 275 275 274 274 274 273 273 272 271 270 269 269 269 268 269 268 268 267 267 267 267 267 267 267 267 267 267 267 266 266 266 265 265 265 264 264 263 263 263 263 263 264 264 264 264 264 264 264 265 265 265 266 266 266 266 266 267 267 268 268 269 270 270 271 271 272 272 272 272 272 273 272 273 273 274 277 279 280 281
275 275 276 275 275 275 275 275 274 274 273 272 271 270 270 269 269 269 268 268 268 267 267 267 266 266 267 267 267 267 267 267 266 265 265 264 264 263 263 263 263 262 263 263 263 263 263 263 263 263 264 264 264 264 265 265 265 266 266 267 267 268 268 268 268 269 269 270 270 271 272 272 273 275 276 276 276 276 273 273 274 276 276 277 279
275 276 276 276 276 276 275 275 274 273 273 271 270 269 269 268 268 268 267 267 267 267 266 266 266 266 266 267 266 266 266 265 265 264 263 263 262 262 261 261 261 262 262 262 262 262 262 262 262 263 263 264 264 265 267 270 271 269 268 269 269 269 269 270 270 270 269 270 271 271 272 275 275 276 276 277 278 278 279 277 276 276 277 278 278
277 276 276 276 276 276 275 274 274 273 273 271 270 269 268 268 268 267 267 267 267 266 266 265 266 266 266 266 266 265 265 264 263 263 262 261 261 260 260 260 260 261 261 261 262 262 262 263 263 263 263 264 264 265 269 271 273 273 271 269 269 269 270 270 270 270 271 271 272 272 272 273 275 275 275 277 278 279 279 280 281 281 281 279 278
277 276 276 276 276 275 275 274 274 274 272 271 270 268 268 267 267 267 266 266 266 265 265 265 265 265 265 265 265 264 263 262 262 261 261 260 260 259 259 260 260 260 261 261 261 262 263 263 263 264 263 264 264 268 270 271 272 273 273 270 269 269 270 271 271 271 272 272 272 273 274 274 274 274 274 275 276 278 279 279 280 281 282 283 284
278 277 276 276 276 276 275 275 275 273 272 271 270 268 267 267 266 266 266 265 265 265 265 265 265 265 264 264 263 262 262 261 261 260 259 259 259 259 259 259 259 260 261 261 262 262 262 263 263 263 263 263 264 268 270 271 272 273 274 273 270 270 270 271 272 272 272 273 273 273 273 274 274 277 276 275 275 275 278 279 280 280 281 283 285
280 278 278 277 277 276 276 276 275 274 273 271 270 269 268 267 267 266 265 265 264 265 264 264 264 264 264 263 262 261 260 260 260 259 259 259 258 258 259 260 260 260 261 261 261 262 262 262 262 262 263 263 263 267 270 271 272 273 274 273 270 271 271 271 272 272 273 274 274 273 273 274 275 275 275 275 275 275 275 276 277 278 280 282 284
280 278 278 277 277 276 276 275 274 272 271 269 268 268 267 266 265 265 265 264 264 265 264 264 264 263 262 261 261 260 259 259 259 258 258 258 258 258 259 260 260 260 260 260 261 261 261 261 262 262 262 262 263 268 270 272 272 273 274 274 271 271 271 271 272 273 273 274 275 275 275 274 275 275 276 276 275 275 275 275 276 277 280 283 285
281 280 278 277 277 276 275 275 274 270 269 268 267 267 266 265 265 265 265 264 264 264 264 264 263 262 261 261 260 259 259 258 258 258 257 258 258 258 258 259 260 260 261 261 261 261 261 261 261 261 261 261 262 269 270 271 273 274 275 271 270 270 270 271 272 273 273 274 275 275 275 275 275 275 277 279 279 277 275 275 275 276 277 278 281
283 281 279 279 278 277 276 273 270 268 268 268 267 266 266 265 264 264 264 264 264 263 263 262 261 261 260 260 260 259 257 257 257 257 257 257 258 258 258 260 259 260 260 260 260 260 261 261 261 261 261 261 262 266 270 272 273 274 272 269 270 270 270 270 270 271 272 273 274 275 275 275 276 276 278 280 280 279 276 276 275 276 278 280 282
281 279 279 278 277 275 272 269 268 268 268 267 266 265 265 264 264 264 264 264 263 263 262 261 261 261 260 259 259 258 257 257 256 256 256 257 258 258 259 259 259 259 259 260 260 260 261 261 261 261 261 261 262 266 270 271 272 273 273 270 270 269 269 269 270 271 272 273 274 276 277 276 276 277 279 280 280 279 276 276 276 276 277 278 281
279 278 277 276 273 271 269 269 268 267 267 266 265 265 264 264 264 264 264 263 263 262 261 260 260 260 259 258 258 257 257 256 256 256 256 256 257 258 258 259 259 259 259 260 260 260 260 261 261 261 264 264 263 265 269 271 272 273 272 270 269 269 268 269 269 270 271 272 273 274 276 277 277 278 281 281 281 279 277 276 276 277 277 279 281
278 278 277 273 270 269 268 268 267 266 266 265 265 265 264 264 264 263 262 262 262 261 261 260 260 259 258 258 257 256 256 255 256 256 256 257 258 258 258 259 259 259 259 259 260 260 259 260 262 262 263 264 264 264 266 271 273 273 274 270 270 268 268 268 269 269 270 271 272 273 275 278 279 280 281 282 282 282 279 278 277 277 277 277 282
276 274 273 270 270 269 268 267 267 265 265 265 265 264 264 263 263 262 262 262 261 261 260 259 259 258 257 257 256 256 255 255 256 256 257 257 258 258 258 258 258 258 258 259 259 260 261 262 264 264 264 264 265 266 267 272 272 273 274 273 269 269 269 269 269 269 270 270 271 272 273 276 278 279 280 280 281 282 282 280 279 278 279 281 283
273 272 270 269 269 268 267 266 265 264 264 264 265 264 263 262 262 262 262 261 260 259 258 257 257 257 256 255 254 255 255 255 256 256 256 256 257 257 257 257 258 258 257 258 259 261 263 264 264 265 265 265 267 269 267 270 272 273 274 274 271 270 271 270 270 270 270 270 271 271 272 275 277 278 279 280 281 281 283 281 281 283 284 284 283
270 270 270 270 268 267 266 265 264 264 264 265 264 263 262 262 262 261 260 260 259 258 257 257 256 255 254 254 254 254 255 255 255 256 256 256 256 256 256 257 257 257 257 258 261 262 263 264 264 265 266 266 266 267 270 269 272 273 274 275 275 273 275 272 270 269 270 270 271 272 272 275 276 277 278 280 281 282 282 282 284 285 285 285 284
270 270 270 269 267 265 264 263 263 263 264 264 263 262 261 261 261 260 259 258 257 257 256 255 255 254 254 254 254 254 255 255 254 255 255 255 255 256 256 256 257 257 258 259 261 262 263 263 263 264 265 266 267 267 269 271 271 273 274 275 275 275 275 272 271 270 270 270 270 271 272 275 276 278 279 280 281 281 280 283 284 285 285 285 284
269 269 269 268 266 264 263 262 263 263 263 263 263 262 261 261 260 259 258 257 256 255 254 253 253 253 253 253 253 254 254 253 254 254 254 255 255 255 255 256 256 257 259 260 261 262 263 263 263 264 264 265 266 267 267 269 273 273 274 274 275 275 275 275 270 270 271 271 273 275 276 277 278 279 279 280 280 280 282 282 283 284 284 283 283
268 268 268 267 264 263 262 261 261 261 261 262 262 262 260 260 259 259 258 257 255 253 253 252 252 253 253 252 253 253 254 254 254 254 254 254 254 255 255 256 257 259 260 260 260 262 263 263 263 264 264 265 266 267 267 268 269 271 272 273 273 274 273 273 273 271 274 275 275 276 276 277 277 277 276 276 277 278 281 282 283 284 284 283 284
267 267 266 264 263 261 261 260 259 260 260 260 260 261 260 259 258 257 257 255 253 253 253 252 252 252 253 252 253 254 254 254 253 253 254 254 255 255 255 257 259 259 259 260 262 263 263 263 263 264 264 265 265 266 267 268 269 269 269 269 270 269 272 272 270 270 271 271 272 273 273 275 276 277 278 279 279 280 280 280 282 284 284 284 284
267 266 264 263 262 262 260 260 259 259 259 259 259 259 258 257 257 256 255 254 253 253 253 252 252 252 252 252 252 254 253 253 252 252 253 253 254 255 256 258 259 260 259 261 263 263 263 263 263 264 264 264 265 266 267 268 269 269 269 269 269 268 268 269 269 269 269 269 269 273 275 274 274 274 275 277 278 280 282 283 284 284 284 284 284
265 264 263 263 262 261 260 260 259 259 259 258 257 257 257 257 256 254 253 253 253 253 252 252 252 252 253 252 251 251 252 252 252 251 253 254 253 254 257 259 262 263 264 264 264 264 264 265 265 265 264 264 266 266 267 272 270 272 269 268 267 268 268 269 270 272 267 266 267 267 268 269 270 271 272 273 275 277 280 284 283 284 284 284 284
265 264 263 263 262 261 260 259 259 258 257 257 256 256 256 256 255 254 253 253 252 252 252 252 252 252 252 251 250 251 251 251 251 251 252 252 256 261 262 261 262 266 268 269 268 265 265 266 265 266 266 266 266 267 273 273 273 273 272 272 271 271 272 271 271 271 267 263 263 264 265 265 266 266 267 268 269 271 272 274 279 283 284 284 284
263 263 263 262 261 261 260 259 258 257 257 256 255 255 255 255 254 254 253 253 253 252 251 251 251 251 253 251 251 251 251 251 251 251 251 251 252 254 260 264 266 266 267 268 268 269 269 270 267 265 267 272 272 272 273 272 272 272 272 271 270 270 271 272 271 266 263 262 262 262 263 264 264 265 265 266 267 267 268 270 272 275 280 284 284
Wind_Speed
8 8 10 11 12 11 10 9 10 9 9 10 9 8 8 8 7 6 4 3 2 2 2 2 2 1 1 2 3 3 3 3 3 3 2 3 4 4 4 5 5 5 5 6 6 5 5 5 6 6 6 6 7 7 8 10 9 9 10 9 10 11 9 8 10 11 14 14 11 14 15 12 15 15 16 15 14 13 13 14 14 14 14 15 15
6 8 10 10 11 11 9 9 10 13 10 9 11 10 9 7 8 6 4 4 4 4 3 2 2 2 2 3 2 3 4 3 3 2 3 3 4 5 5 5 6 6 6 6 6 5 6 6 6 7 7 7 7 8 9 9 10 9 9 10 6 9 9 8 9 10 9 9 16 17 15 11 13 14 13 13 14 13 13 14 13 14 15 14 13
10 13 10 12 12 11 10 9 10 11 12 11 10 9 8 7 7 6 5 6 5 4 3 3 3 3 3 3 2 3 3 3 3 4 4 5 4 5 5 5 5 6 6 6 5 5 5 5 6 6 6 7 8 8 8 9 8 9 9 9 11 8 9 8 9 6 10 11 12 14 15 17 12 6 9 11 10 10 10 11 11 12 14 13 13
16 15 15 13 13 12 10 11 11 9 10 9 9 10 8 8 8 7 7 7 5 5 5 5 3 2 2 2 4 3 4 4 5 5 5 6 6 4 4 5 6 7 7 7 5 5 6 6 6 6 7 7 8 9 9 9 8 8 8 9 9 13 8 8 6 8 8 10 10 5 11 12 17 9 5 10 9 13 14 14 13 14 15 15 12
15 13 13 13 14 15 14 12 10 12 11 13 12 11 9 11 10 10 9 8 6 5 6 4 3 2 1 2 3 4 3 3 4 4 4 5 7 7 7 5 7 8 8 7 6 6 6 6 7 7 8 8 8 8 8 8 9 8 9 9 9 9 13 9 9 8 10 8 10 11 10 7 10 15 17 19 10 10 12 11 10 10 10 11 12
14 16 17 18 18 15 12 12 13 12 13 13 12 11 10 9 9 8 6 6 6 6 6 4 4 4 2 2 2 2 4 2 3 4 5 5 6 6 7 6 6 7 7 7 6 6 6 6 7 8 9 8 8 8 9 9 9 9 8 9 10 10 11 13 12 8 9 11 12 13 12 13 15 16 14 18 11 10 16 14 17 16 15 14 14
9 11 13 15 16 15 15 14 15 14 13 10 10 9 9 9 9 8 8 6 5 5 6 5 4 4 5 4 3 4 5 5 3 4 5 6 6 7 7 6 6 7 7 6 6 6 6 7 7 8 8 8 8 8 9 10 9 9 8 8 9 10 10 13 14 11 9 11 12 16 18 17 18 15 16 15 21 15 9 14 13 12 11 13 15
12 14 16 17 17 20 21 19 15 15 11 10 9 8 10 9 9 8 6 6 6 5 5 5 5 5 4 4 4 4 5 7 5 5 5 6 7 8 7 7 7 7 7 7 6 6 6 7 7 8 8 9 8 8 9 9 9 9 9 10 10 10 12 13 15 12 10 11 8 12 15 16 18 19 19 16 18 23 20 11 14 20 18 16 17
13 14 16 18 19 19 17 16 13 11 11 11 11 10 8 8 8 7 7 6 5 6 5 5 5 5 4 3 4 4 5 6 5 5 6 6 8 7 7 8 7 7 7 7 7 7 7 8 8 9 9 9 9 9 9 10 11 11 11 10 11 11 11 13 14 14 12 14 11 12 13 14 14 16 18 17 15 19 20 18 17 16 18 16 16
11 14 13 14 15 15 14 11 11 13 10 10 9 8 8 8 9 9 8 6 6 6 5 5 5 4 4 4 5 5 4 5 4 6 6 5 7 8 7 7 7 7 6 6 7 7 8 8 9 9 10 10 10 10 11 11 11 11 12 14 13 15 11 13 15 14 13 14 13 13 13 13 14 15 16 16 17 19 20 22 18 18 19 16 15
9 10 10 11 10 11 12 15 14 11 9 10 8 9 9 10 10 10 9 6 5 6 6 6 5 4 4 5 6 6 5 5 5 6 5 5 7 7 6 7 7 7 6 6 7 7 8 8 9 9 10 10 10 11 11 11 11 12 13 15 15 16 13 14 15 16 15 17 17 15 16 15 15 15 16 15 16 17 17 20 21 17 19 20 15
8 8 9 9 9 10 11 14 14 13 10 9 9 9 10 10 10 10 7 7 5 5 5 4 4 4 4 5 5 6 5 5 6 7 6 7 7 8 7 7 7 6 6 7 6 6 7 8 9 10 10 10 11 10 11 11 11 12 13 13 14 14 14 14 14 16 18 16 18 16 16 16 16 17 16 16 16 17 17 20 19 18 19 19 17
8 9 9 11 13 14 16 15 13 15 13 12 10 11 10 10 11 11 9 7 6 5 5 5 4 4 5 5 6 5 6 6 6 7 6 6 6 7 7 8 7 7 6 7 8 8 8 9 9 9 10 10 11 12 12 13 14 13 14 15 15 16 15 14 14 17 17 18 17 16 15 16 17 16 17 19 18 17 16 19 19 17 19 19 16
9 10 10 12 12 14 14 14 14 13 13 13 11 12 10 10 11 10 9 7 5 5 4 4 4 5 5 5 5 5 5 5 6 6 6 6 6 7 7 7 8 8 9 9 8 10 9 10 11 12 12 13 13 13 14 15 14 15 15 15 16 14 14 16 17 18 18 18 17 16 17 16 18 14 14 14 16 15 15 17 18 15 16 19 15
8 10 12 14 14 14 14 15 14 13 13 11 13 12 11 11 10 10 9 7 6 5 4 5 4 5 5 5 5 4 5 5 6 6 6 6 6 7 8 7 8 8 8 9 9 10 11 11 12 13 13 13 13 14 13 14 16 15 15 15 16 14 15 16 16 16 18 18 18 18 17 18 18 16 14 16 16 16 15 14 14 19 18 17 13
10 12 12 13 12 13 12 14 15 13 14 12 13 13 11 11 10 10 10 8 6 5 5 5 5 4 5 5 5 5 5 5 5 5 5 6 7 7 8 8 8 9 9 10 10 10 11 12 12 13 13 13 14 14 15 15 14 15 15 15 16 14 14 19 17 18 19 21 20 17 17 16 15 15 15 15 16 17 16 15 13 16 21 20 15
11 13 13 13 11 13 14 14 14 14 13 14 15 13 13 11 10 9 8 7 7 6 6 5 5 4 5 5 5 5 6 6 6 6 7 6 7 7 7 8 9 9 9 9 11 10 11 12 12 13 13 13 14 14 15 15 15 15 16 16 18 15 17 18 17 17 18 18 17 21 19 19 21 19 19 20 20 19 17 15 15 16 16 22 19
10 10 10 10 12 14 13 12 15 17 17 15 14 13 11 12 12 11 8 9 7 6 6 5 5 5 4 5 5 5 5 5 5 6 6 7 7 7 7 8 8 8 9 9 10 12 12 12 12 13 13 14 14 14 14 16 15 16 16 18 16 17 17 16 17 18 17 17 18 18 17 17 17 17 17 18 18 18 17 16 16 16 16 21 18
10 12 12 12 14 15 16 17 15 14 13 13 12 12 11 10 9 10 11 9 9 6 5 4 4 3 4 4 4 4 4 4 5 6 6 7 8 7 8 9 9 10 10 10 11 12 12 12 12 13 13 13 13 14 14 15 15 15 16 15 16 16 15 18 16 15 16 14 17 18 16 16 16 16 14 12 13 13 14 14 16 16 16 19 20
12 12 13 14 14 15 16 16 17 17 15 13 14 11 13 11 11 9 8 7 7 6 5 5 4 4 4 4 4 4 4 5 5 6 6 7 8 8 9 9 10 9 10 11 11 12 13 13 12 13 15 14 14 14 14 14 14 14 14 15 15 15 18 18 18 17 17 15 18 20 19 18 16 16 15 17 15 17 16 17 17 15 16 18 17
13 13 13 14 14 13 12 10 10 9 9 11 13 14 12 11 12 10 12 9 7 6 5 4 4 4 4 4 4 4 5 5 6 6 8 8 8 8 8 9 10 10 10 12 12 13 13 13 14 13 13 13 14 14 13 13 14 15 16 14 17 17 18 19 17 19 20 18 18 19 19 18 18 19 18 16 15 16 15 15 14 14 15 17 17
13 13 12 11 11 10 8 8 9 11 11 13 12 12 13 13 12 11 9 7 7 6 5 4 4 4 4 4 4 4 4 5 6 7 8 8 8 8 9 9 11 11 11 12 13 12 11 13 13 14 14 14 15 15 15 14 16 16 15 13 14 17 17 19 20 20 20 16 17 19 20 19 18 19 19 20 15 15 16 15 16 15 15 17 17
11 11 10 9 9 10 11 12 13 13 13 13 13 13 13 12 11 9 9 7 6 5 4 4 3 4 4 4 4 4 4 6 6 7 8 8 8 9 9 10 11 11 11 11 12 12 13 13 14 14 14 15 15 15 14 15 16 16 17 16 16 17 18 18 19 20 19 17 19 19 20 18 16 18 19 18 18 17 17 18 20 17 17 17 19
7 6 6 7 8 9 10 13 14 12 13 15 13 11 11 11 10 8 8 7 6 5 4 3 3 4 4 4 4 4 5 5 6 7 8 8 8 9 9 10 11 10 12 11 12 13 13 13 14 14 14 14 15 15 15 15 16 16 17 18 18 18 18 18 19 20 19 17 18 19 19 18 18 19 19 18 17 16 16 16 17 17 16 16 18
8 9 9 9 10 13 13 12 13 11 10 12 13 13 12 10 8 8 7 6 5 5 4 4 4 4 3 3 4 3 4 6 7 7 8 8 8 9 8 10 10 11 11 11 11 11 13 13 13 14 15 15 15 16 16 16 16 15 17 17 18 18 18 18 19 20 19 19 19 19 19 18 17 19 18 19 16 19 17 17 18 16 15 16 15
10 8 10 14 14 12 11 12 10 11 11 12 12 12 11 9 8 7 8 7 6 5 5 4 4 4 3 3 3 3 5 6 7 7 7 8 8 8 9 9 9 10 11 10 12 11 11 14 14 14 15 15 15 15 16 17 17 16 16 17 17 17 18 18 18 18 18 18 17 18 18 18 18 18 19 19 18 20 18 19 19 16 14 15 17
11 12 10 7 10 14 14 14 12 10 11 9 12 12 10 10 9 7 7 6 6 6 5 4 4 4 3 2 3 4 5 6 6 6 6 7 8 9 9 9 9 10 10 11 11 12 12 13 14 15 15 15 16 15 15 16 16 17 17 17 17 17 18 17 17 18 18 18 18 17 18 18 19 19 19 20 19 20 18 20 18 17 16 16 18
6 9 12 15 14 12 14 15 13 12 11 11 11 11 11 10 10 8 7 6 5 6 5 5 4 3 3 3 3 4 5 5 5 5 6 7 7 7 8 8 9 9 10 11 12 13 13 13 14 14 15 16 17 16 16 15 16 16 16 16 16 17 17 17 18 19 18 18 18 18 18 19 19 18 19 20 19 18 17 19 18 15 15 15 16
11 14 14 13 14 15 15 14 12 12 14 13 12 10 9 8 8 7 6 7 6 6 5 4 4 3 3 3 3 4 4 4 4 5 6 7 7 7 7 7 7 8 8 10 12 14 15 15 14 15 17 16 15 15 13 13 15 16 16 17 17 17 17 18 19 19 18 19 18 18 18 18 21 25 30 27 26 23 17 17 18 15 16 17 17
14 15 15 14 15 14 15 15 13 14 15 14 11 11 10 10 8 7 7 6 6 5 5 4 4 3 3 3 3 4 4 3 4 5 6 6 7 7 7 7 7 8 8 10 11 12 13 14 15 16 15 14 13 12 15 24 23 19 19 18 17 17 17 17 17 18 18 18 19 18 18 27 29 31 30 31 31 31 31 25 20 17 16 15 15
14 13 14 15 14 14 14 16 16 15 15 13 11 11 10 9 8 7 7 7 6 5 5 4 4 4 3 3 3 3 3 4 4 5 5 6 6 6 6 7 7 7 8 9 10 12 13 14 15 15 15 14 13 13 24 26 27 29 22 19 18 18 18 18 18 18 19 18 16 18 17 21 25 27 25 30 29 30 30 31 33 33 28 20 17
14 15 14 14 15 16 18 20 19 16 13 12 12 12 11 10 8 8 7 7 6 5 5 5 4 4 4 3 3 2 3 4 4 5 5 5 6 5 6 6 7 8 8 8 10 12 13 14 13 14 15 15 15 20 26 27 28 28 26 20 18 17 17 17 17 18 17 17 18 18 16 15 14 17 17 19 22 27 29 30 31 31 31 34 32
15 15 17 18 19 20 21 19 16 15 13 13 12 13 13 11 9 8 7 6 6 5 5 5 4 4 3 2 2 2 3 4 5 5 5 5 5 5 5 6 7 7 8 9 11 12 12 13 14 16 16 15 16 22 27 29 29 29 29 25 17 17 17 17 18 18 19 17 19 16 19 18 14 26 22 21 21 20 25 30 30 32 33 35 32
13 15 17 17 14 13 15 17 18 15 12 10 14 17 12 9 8 8 7 6 6 6 5 5 4 3 3 1 1 1 3 4 5 5 5 4 4 5 6 6 7 8 9 10 11 12 13 14 14 15 16 16 17 22 28 29 29 30 29 25 18 17 17 17 18 18 18 18 18 19 16 19 17 17 19 19 21 16 17 17 18 17 17 23 28
12 13 13 14 16 15 14 15 14 15 14 13 12 11 11 9 8 8 6 6 5 5 5 4 4 3 1 0 1 2 3 5 5 5 4 4 4 5 6 6 7 9 10 10 11 12 11 11 13 14 14 15 14 27 29 30 29 29 29 25 16 15 15 15 17 18 19 18 19 18 19 19 17 18 16 19 17 18 16 17 18 19 18 16 16
13 15 16 16 17 20 22 21 15 16 15 15 14 10 10 9 8 7 7 6 5 5 4 4 3 2 1 1 1 2 4 5 5 4 4 5 5 6 7 7 7 8 8 9 9 9 11 12 12 13 13 15 15 27 28 28 30 29 30 17 14 15 15 16 16 17 17 17 17 17 17 18 18 19 22 30 27 20 17 18 20 20 19 19 18
12 14 16 18 18 18 16 15 16 16 14 13 11 11 10 10 9 7 6 6 6 5 5 4 3 2 2 1 1 3 4 5 4 4 5 5 7 7 7 6 8 8 10 9 9 9 10 11 13 12 13 14 13 21 27 30 29 30 23 15 15 14 14 15 16 17 17 17 16 17 17 18 19 20 24 28 29 26 17 18 18 18 17 16 14
6 6 7 10 11 12 14 18 16 13 11 11 12 11 11 10 9 8 8 7 6 5 5 4 3 3 2 1 1 3 5 5 4 4 5 5 5 5 6 6 8 10 10 9 9 10 10 10 11 13 12 14 13 20 29 29 29 28 25 18 14 14 15 16 16 16 15 16 18 26 25 20 19 18 25 29 30 24 16 17 17 17 19 18 17
10 14 14 14 15 20 19 14 15 15 11 11 12 12 10 10 9 9 7 7 7 5 5 4 3 3 2 0 1 3 4 4 5 4 3 5 6 6 6 6 6 7 9 9 9 10 10 10 11 12 18 19 13 17 25 27 28 28 23 16 16 14 16 16 15 16 15 16 17 19 26 25 22 23 29 28 29 23 16 16 16 17 18 16 13
8 9 13 16 20 18 16 18 19 15 12 13 12 10 9 10 9 8 8 7 6 6 5 4 3 3 1 1 3 3 4 4 5 4 3 3 5 5 6 7 7 7 8 9 9 10 13 12 12 11 11 11 13 14 17 26 26 29 30 19 15 15 16 16 15 15 16 16 17 17 19 24 26 28 28 28 26 28 18 15 15 16 17 18 12
11 12 13 19 15 17 16 15 11 13 13 11 11 10 10 8 9 8 8 6 6 6 5 4 3 2 1 2 2 3 5 5 3 3 3 3 4 6 7 7 8 7 8 9 12 13 12 11 11 11 10 11 12 15 17 26 27 28 30 25 13 15 14 15 15 17 17 17 17 16 16 22 27 27 28 29 28 26 24 16 16 16 17 17 15
11 15 23 18 14 14 15 14 10 11 10 11 11 11 9 10 9 8 7 7 6 6 5 4 3 2 2 2 4 4 5 3 2 2 4 4 4 5 6 7 7 8 11 12 12 11 10 10 8 8 9 11 12 20 17 22 27 29 28 31 18 16 19 17 17 15 16 16 18 17 16 20 27 28 26 26 29 29 27 17 16 26 28 27 21
17 17 19 20 17 20 18 14 10 9 10 11 13 13 10 8 8 9 8 7 6 6 5 4 4 2 2 3 3 4 2 1 2 3 4 6 5 6 8 8 8 9 10 12 12 11 12 12 13 13 12 10 9 10 21 21 25 29 31 30 31 25 28 18 16 17 17 18 17 17 18 27 29 29 28 28 27 30 26 18 25 27 28 31 26
14 19 19 18 21 19 17 10 10 9 8 10 14 15 10 10 10 9 8 7 7 6 5 4 4 3 4 4 3 2 0 1 3 4 3 5 6 6 6 5 7 8 9 10 10 12 10 11 15 15 12 11 12 14 16 23 25 31 29 30 29 29 29 19 17 15 16 18 18 17 19 29 31 30 31 30 28 27 21 26 26 27 27 23 15
17 17 15 17 24 23 16 10 9 10 7 8 7 16 13 12 10 10 9 9 8 6 6 6 5 4 4 3 2 0 1 2 3 4 5 6 7 5 7 6 7 8 8 9 10 10 10 13 14 15 16 16 16 12 9 17 32 27 29 29 29 29 27 28 18 14 17 18 23 31 32 31 31 31 31 30 25 25 28 27 27 26 23 13 13
15 13 14 14 16 19 20 16 9 8 8 7 6 11 19 11 11 10 9 9 9 9 7 7 5 3 2 2 2 1 2 4 5 3 2 3 5 5 5 7 6 7 8 9 10 9 12 13 13 15 16 15 14 11 14 13 14 17 23 28 30 27 26 27 25 19 25 30 30 30 32 31 28 25 18 14 13 14 20 24 25 23 14 13 12
21 16 16 16 21 20 21 18 14 9 8 7 8 6 8 11 11 10 10 10 10 8 7 6 5 3 1 1 3 2 2 4 5 3 3 2 3 4 5 6 6 7 8 9 9 10 12 11 13 13 14 14 14 14 17 13 9 12 16 17 19 17 23 24 16 13 17 16 20 22 19 22 21 26 26 25 23 23 19 17 14 14 13 12 12
16 19 20 16 14 15 15 14 13 11 9 8 7 7 8 9 9 9 10 9 9 7 7 7 6 4 3 2 3 3 4 4 4 4 5 6 4 3 5 6 6 7 7 7 7 8 10 11 12 13 13 12 10 13 15 14 15 16 16 16 15 14 14 12 14 15 14 16 16 18 18 13 12 12 12 10 11 12 13 12 10 9 9 10 12
17 15 17 17 14 13 14 13 11 10 9 8 8 8 8 9 9 10 10 10 9 8 7 6 4 4 3 2 2 3 4 4 3 2 2 5 7 6 6 7 8 8 8 8 7 9 10 10 10 11 13 9 11 13 13 22 21 26 23 19 15 13 14 12 18 26 17 14 12 12 12 12 10 11 9 10 11 12 11 8 10 8 9 9 8
9 11 11 13 13 18 15 11 10 9 9 9 9 8 8 7 9 9 10 13 10 8 7 6 4 4 3 2 3 3 5 5 5 5 6 5 7 10 8 7 7 14 17 17 15 10 11 11 9 10 12 14 15 16 28 31 30 30 31 31 28 26 26 21 24 28 18 10 11 10 10 10 11 10 10 10 11 11 12 12 11 9 9 8 8
17 16 15 16 12 9 12 12 10 10 10 9 9 9 8 7 9 9 9 10 10 8 6 5 5 4 4 3 2 3 4 4 3 3 4 7 9 6 6 8 12 15 17 18 17 18 20 20 15 12 13 22 25 27 29 29 30 30 30 32 32 28 27 27 27 19 12 11 12 12 11 10 10 10 10 10 11 11 11 11 11 11 10 8 10
Wind_Direction
196 191 183 188 192 187 184 178 179 176 175 174 166 169 171 164 150 173 174 131 151 171 212 203 219 255 226 222 252 259 266 262 258 265 258 263 270 265 261 274 283 280 283 286 287 291 297 308 317 322 322 320 315 311 311 309 310 311 310 307 303 302 297 292 295 304 306 299 284 280 284 272 269 268 266 266 265 261 261 260 258 259 259 259 261
160 189 190 187 194 191 182 183 173 170 190 175 177 177 170 159 164 164 136 156 177 192 189 181 192 198 224 256 266 277 289 290 292 276 270 271 270 264 264 273 279 279 283 285 292 303 313 319 320 317 320 312 305 301 303 306 307 310 313 308 296 298 296 297 295 307 300 309 319 318 302 291 257 253 254 261 252 254 254 256 260 260 259 261 265
196 204 190 193 193 191 185 189 191 188 171 183 182 165 167 165 172 163 159 169 188 189 181 205 204 204 193 244 245 293 259 267 272 274 283 277 257 247 253 262 274 284 288 288 289 297 299 301 302 307 307 310 310 308 307 307 308 308 309 305 308 293 285 287 283 282 295 306 298 297 302 327 314 244 240 240 250 256 261 262 263 265 265 265 269
208 196 195 190 192 191 190 192 189 186 176 179 181 180 171 171 176 173 182 179 182 190 195 207 203 197 219 267 287 259 283 304 296 294 292 289 276 261 280 295 303 297 295 294 295 300 306 305 307 309 308 309 304 304 302 300 304 306 306 302 301 303 297 294 292 296 295 311 307 275 301 310 301 301 339 288 260 260 261 264 265 266 268 269 266
208 196 195 190 192 199 195 189 178 192 186 185 182 182 173 179 179 180 179 182 179 182 192 181 181 219 259 299 276 293 272 278 300 288 273 281 292 298 292 294 287 286 288 286 293 302 306 303 301 302 302 303 302 297 296 295 298 296 296 294 292 293 299 294 290 280 277 262 272 299 300 266 253 290 323 294 282 275 262 258 264 274 281 286 283
203 197 195 194 198 195 191 189 194 195 194 193 184 183 172 176 175 177 166 165 176 184 178 170 190 184 187 221 274 276 287 283 266 281 299 290 279 283 282 270 269 270 272 282 293 304 301 295 293 296 297 296 296 293 291 293 291 292 291 289 286 280 283 294 288 276 275 272 257 255 254 277 300 300 310 295 308 252 275 267 266 266 272 274 274
202 198 193 195 198 193 196 197 197 195 199 183 185 176 178 170 171 169 169 169 167 175 168 175 180 186 198 210 218 236 261 269 238 245 262 274 275 275 279 283 276 277 281 284 292 284 281 278 277 279 280 281 281 281 281 282 286 286 288 281 280 282 280 281 282 287 283 259 256 256 258 262 268 283 284 297 295 296 252 274 268 262 264 274 277
195 198 197 199 193 194 197 198 195 198 183 184 175 173 174 173 163 166 161 160 163 160 172 178 181 187 190 205 215 225 233 261 279 280 272 276 281 284 293 292 290 284 286 289 285 284 282 280 277 279 278 278 277 273 275 278 281 279 277 278 277 272 272 273 280 280 277 281 259 261 262 261 262 266 269 276 285 292 295 264 266 276 274 268 267
192 196 200 196 196 200 198 195 195 185 189 183 181 176 171 158 154 149 164 164 164 173 173 184 191 184 188 196 228 233 242 257 268 273 282 278 278 282 280 282 284 279 277 284 282 281 281 281 281 279 279 279 278 277 275 277 276 278 277 277 275 275 266 267 271 273 272 274 281 272 272 269 270 264 267 266 266 282 280 283 281 274 274 265 265
204 208 202 200 200 197 195 183 181 194 185 180 178 160 153 146 151 158 172 177 170 173 179 179 186 186 187 204 222 242 239 256 257 265 263 267 273 276 280 283 285 284 281 277 281 279 276 277 276 276 277 278 278 278 279 277 276 274 274 278 276 272 266 263 263 267 270 272 270 278 278 275 269 268 260 260 264 258 271 282 280 281 278 273 268
206 207 204 203 192 188 177 189 186 183 182 176 168 163 151 156 158 166 177 170 170 171 170 181 179 180 192 203 217 240 249 256 271 268 268 275 275 277 280 284 282 283 288 284 279 280 277 274 275 276 276 277 277 278 276 276 275 277 278 277 274 270 267 265 264 265 268 269 271 271 270 269 265 264 263 261 259 265 270 272 280 276 275 280 265
200 195 199 182 175 183 181 192 186 183 170 178 170 158 159 157 157 165 172 178 175 170 168 179 172 185 199 207 219 229 239 246 256 272 276 278 280 288 293 292 288 288 289 290 284 280 277 276 274 278 276 275 273 272 274 273 275 277 276 276 275 269 265 266 265 266 264 266 269 269 267 265 261 258 263 264 262 265 268 274 277 283 277 270 276
194 196 189 190 190 185 192 192 181 184 186 177 174 166 160 160 166 162 178 178 177 167 173 177 175 193 200 209 220 228 232 239 250 259 263 269 279 285 293 292 297 300 298 298 290 288 285 281 279 276 277 272 273 274 272 274 279 275 276 275 271 270 266 262 263 261 263 264 269 268 266 263 260 262 265 264 266 268 269 275 274 279 279 277 269
199 194 197 199 197 195 193 189 190 187 183 177 173 170 164 162 168 165 167 170 166 163 173 179 193 201 204 209 220 225 235 240 244 252 260 263 268 276 280 282 288 283 289 284 286 288 281 278 278 275 272 273 272 272 275 277 274 275 274 272 270 266 264 263 263 263 260 261 264 267 263 261 268 273 272 272 271 272 267 266 277 277 273 273 268
200 203 205 201 196 192 191 190 189 188 180 177 173 173 163 163 163 160 153 168 163 169 168 187 198 207 208 215 223 227 237 244 248 253 260 267 273 277 275 277 278 281 278 281 282 280 278 277 273 271 270 269 270 273 275 275 275 275 271 270 269 264 264 263 262 261 263 260 260 262 264 264 265 266 266 266 268 266 268 272 278 283 282 272 267
206 207 206 209 201 193 189 189 190 184 182 178 177 168 171 162 160 160 159 160 161 168 185 188 203 204 209 218 222 228 243 248 257 258 264 269 275 273 275 274 276 280 280 281 279 278 279 277 274 269 270 270 273 271 273 274 274 273 272 269 268 265 263 265 264 264 265 264 264 263 267 268 271 271 267 266 261 263 263 266 267 272 278 282 276
205 212 212 204 193 197 197 190 185 181 182 185 175 167 163 155 154 152 153 142 159 176 185 192 203 201 217 217 221 227 233 245 256 269 273 276 273 271 273 274 278 276 280 282 284 281 279 277 277 274 273 273 274 273 274 273 273 271 269 270 269 267 266 264 264 265 266 265 264 263 262 266 267 265 264 262 263 262 262 267 267 268 272 275 273
216 218 217 207 202 200 197 195 192 189 185 174 164 164 161 152 154 150 153 159 175 177 188 195 199 210 217 221 225 231 244 255 264 273 279 280 276 276 278 283 280 284 285 284 284 283 281 278 277 278 276 278 276 275 275 272 272 270 268 267 267 268 266 264 265 265 263 265 264 262 262 262 260 261 261 260 258 260 261 262 266 269 271 273 271
213 212 209 205 202 201 197 196 191 185 177 165 144 152 148 147 148 150 157 168 169 171 183 194 198 208 217 227 234 242 249 259 266 272 278 276 279 279 282 283 287 286 286 286 287 286 284 282 281 281 283 282 282 278 276 275 270 270 268 268 267 263 261 264 262 263 265 264 265 263 259 256 261 265 271 277 276 278 274 273 272 268 268 269 270
215 211 211 209 206 203 197 190 183 181 171 160 150 146 149 149 148 147 142 155 159 169 180 191 201 210 225 237 245 252 263 273 279 285 281 280 283 288 287 287 286 289 287 287 286 286 287 287 286 287 288 287 285 283 279 276 273 269 269 270 267 264 264 262 269 269 266 265 266 266 264 264 266 269 271 272 279 277 274 271 266 267 270 272 272
216 212 210 207 204 200 196 184 170 150 143 142 160 157 149 151 153 160 159 169 166 171 175 188 196 217 230 241 255 260 272 276 282 283 283 283 285 287 288 287 292 286 289 290 287 288 289 290 293 291 291 291 289 287 283 278 275 274 272 269 272 267 264 266 266 269 269 269 266 264 264 263 267 269 271 273 271 269 271 270 271 270 270 273 271
216 214 209 205 199 190 172 157 148 150 156 162 163 151 154 162 162 153 154 158 158 171 173 183 197 218 226 245 251 264 271 280 288 289 285 284 285 288 290 293 287 288 289 290 293 293 294 297 295 294 292 290 287 287 283 279 278 276 274 275 270 268 264 267 271 266 266 266 267 264 263 263 263 263 266 272 278 278 275 277 278 275 272 271 272
216 211 205 199 190 183 176 171 168 168 163 159 161 162 160 158 151 154 151 159 159 164 164 177 200 216 241 248 266 272 281 287 290 287 282 285 290 292 295 292 291 293 296 296 300 299 299 298 296 295 294 293 290 287 284 282 280 280 279 277 272 270 270 270 270 269 268 269 267 265 265 265 265 268 268 268 269 272 275 272 271 269 271 272 272
221 201 191 186 169 162 164 169 171 172 171 174 165 157 152 148 146 144 152 150 154 159 169 184 203 229 243 259 263 272 280 282 281 278 281 290 295 295 297 293 295 298 302 300 305 304 302 301 299 296 293 290 289 288 286 284 282 280 279 277 275 272 272 271 270 270 271 270 266 267 266 265 266 266 267 266 268 269 270 271 267 259 261 266 270
215 200 187 171 170 176 185 181 177 172 169 167 168 161 151 148 144 148 144 147 147 161 169 190 204 222 237 244 257 271 275 278 278 280 289 295 297 299 298 300 303 304 304 308 308 308 304 302 298 297 295 292 291 291 287 285 284 280 279 278 277 276 274 274 271 269 269 268 269 270 271 268 265 265 266 267 268 269 269 272 272 271 268 264 263
211 191 180 190 190 187 181 181 177 179 172 167 162 157 148 143 148 143 140 146 162 165 178 189 200 216 229 240 261 270 272 274 278 284 294 300 301 299 305 306 307 307 310 307 307 305 303 299 296 295 294 293 292 291 288 288 288 283 280 278 278 276 276 274 272 271 271 270 269 267 267 266 266 265 267 268 270 269 271 270 268 268 271 282 282
207 197 197 180 188 194 188 182 184 174 173 167 160 153 149 144 144 144 138 154 166 168 181 184 200 209 229 244 255 264 274 276 282 294 303 305 303 307 309 309 311 309 309 307 304 302 298 296 294 294 293 294 294 292 290 288 288 283 281 279 277 276 274 272 271 270 268 267 266 267 268 266 264 263 264 267 271 269 267 269 271 276 279 277 274
194 195 195 200 197 185 186 185 176 178 167 161 160 156 153 151 149 149 152 159 169 170 178 187 189 205 216 240 252 263 270 276 289 304 305 303 306 306 310 309 311 311 310 307 304 300 296 294 295 295 298 301 296 293 288 287 285 283 281 279 277 275 272 269 266 263 262 261 261 261 262 263 264 265 263 266 266 267 267 269 269 265 257 253 253
201 210 204 199 193 192 187 182 178 167 170 162 156 150 141 136 135 145 158 169 168 167 179 181 188 200 216 233 254 262 267 281 305 309 304 305 306 306 306 305 303 304 305 303 299 297 297 296 294 296 299 298 298 292 290 288 287 284 280 276 275 271 267 266 261 255 252 254 254 253 254 255 259 261 261 262 264 261 261 263 265 267 277 284 287
210 210 206 202 201 190 186 180 173 178 169 165 159 157 155 149 150 158 164 169 158 175 172 180 188 201 221 238 254 264 273 309 318 307 303 307 306 306 303 302 305 304 301 293 289 291 290 292 294 299 299 298 294 293 290 291 291 290 288 285 281 279 277 273 271 265 254 250 249 248 248 250 259 265 266 265 265 264 261 261 264 265 264 268 269
216 210 205 203 197 189 180 182 184 180 176 166 156 150 148 149 153 160 165 167 163 169 178 177 193 202 220 238 252 268 307 321 312 301 300 303 305 300 300 303 305 303 293 289 292 293 299 304 303 303 305 302 299 295 297 297 297 296 295 292 289 285 279 277 274 272 272 267 258 254 250 252 258 260 263 265 264 264 264 264 263 262 260 258 261
213 208 202 198 193 188 185 188 186 181 170 163 159 158 154 155 156 164 161 160 164 172 175 184 194 205 217 226 250 286 323 312 298 295 297 297 291 293 305 310 305 300 296 293 295 301 308 310 306 306 303 301 300 299 300 302 301 299 296 292 289 286 284 281 276 274 269 270 265 269 262 260 253 256 259 264 265 266 266 266 268 268 265 260 254
211 203 202 199 195 191 189 187 179 177 172 170 152 151 160 155 159 160 146 158 169 172 175 186 195 199 208 210 260 314 316 293 289 290 289 281 289 306 313 310 304 300 300 304 309 309 307 310 307 306 304 302 300 300 304 304 303 301 299 295 290 287 285 283 281 275 269 265 267 264 270 264 256 262 258 263 265 269 268 268 269 271 269 265 258
212 203 203 200 193 189 187 185 180 174 164 145 159 152 149 144 141 143 152 160 167 174 178 192 189 198 189 210 320 351 297 288 287 286 284 295 314 316 310 300 297 305 310 307 310 311 310 309 306 302 300 300 297 298 302 305 306 304 301 297 291 288 284 281 282 279 278 272 268 263 259 264 257 259 252 259 258 255 262 264 266 266 263 262 260
207 204 201 193 188 181 173 170 171 165 156 148 144 140 129 132 145 149 156 158 167 167 179 186 184 185 156 85 6 316 292 288 289 287 297 312 317 312 309 310 314 317 316 314 315 313 306 299 296 296 297 295 293 300 305 308 307 306 304 302 296 296 294 292 289 285 281 274 269 265 260 260 256 257 255 256 257 259 257 260 265 265 268 267 253
210 202 197 185 180 178 179 179 161 143 146 147 140 138 135 145 144 150 153 163 163 171 176 176 176 164 148 64 6 303 290 287 289 298 310 324 327 320 316 313 312 312 307 308 304 299 297 295 291 292 291 291 290 302 307 308 310 311 310 307 304 295 288 285 286 291 290 288 283 276 273 273 266 258 258 260 262 263 258 256 260 267 271 269 266
214 194 195 188 183 177 167 143 137 142 145 145 137 135 136 141 146 151 153 160 164 174 177 170 163 156 128 98 320 294 285 285 294 310 321 329 328 319 315 315 313 312 313 311 301 297 292 289 290 288 288 289 287 296 307 312 314 315 315 306 297 294 298 300 298 295 292 291 289 285 279 276 270 263 260 258 261 262 260 259 260 262 264 267 264
186 161 157 155 153 141 137 137 138 143 138 131 135 140 140 142 147 152 158 163 170 176 171 164 159 141 120 104 288 279 276 288 300 305 318 319 310 302 303 313 314 312 310 300 298 291 282 280 284 287 288 290 290 302 310 312 315 314 312 309 308 307 300 297 295 292 291 289 286 287 286 284 280 271 263 260 262 262 259 258 259 257 261 262 260
166 161 156 155 147 142 139 129 137 138 142 134 134 138 138 143 151 155 158 162 172 172 165 160 143 123 103 197 258 261 267 281 291 292 312 309 311 311 304 307 300 298 295 295 290 291 286 285 281 280 291 297 292 296 304 312 316 318 318 313 309 301 301 298 297 296 293 291 289 288 286 283 282 281 279 269 261 259 253 253 256 257 258 257 257
148 154 156 137 122 125 139 148 150 144 135 137 138 139 138 142 149 150 156 168 169 162 155 128 121 110 117 231 257 250 255 258 272 293 300 299 302 306 311 312 304 300 296 295 290 287 289 291 293 293 292 288 294 296 301 314 322 324 322 317 310 307 301 298 296 296 294 289 287 287 286 286 287 287 287 285 274 262 251 243 249 255 258 259 261
145 132 125 129 147 147 148 149 137 134 139 139 139 136 141 142 144 148 163 158 146 142 131 122 114 128 157 230 261 244 251 255 249 279 302 303 310 313 312 308 304 299 293 291 288 293 295 300 308 306 303 299 299 309 314 322 321 322 321 322 309 304 300 297 295 290 289 290 289 289 287 285 284 283 285 288 289 277 263 248 241 244 246 256 263
123 135 132 126 143 138 108 106 118 132 136 142 143 135 138 144 146 152 151 139 139 134 123 123 140 136 165 232 229 248 251 250 275 312 340 322 313 312 302 303 297 295 294 290 291 300 302 301 301 302 305 303 307 319 322 322 326 327 324 318 312 302 301 298 294 289 290 290 289 288 285 285 285 285 285 284 285 286 275 257 246 247 251 250 250
135 136 149 147 146 145 134 133 131 131 141 148 139 133 139 142 141 147 139 139 135 129 128 139 139 140 182 222 239 237 251 256 329 14 348 321 318 318 311 304 297 295 289 291 300 300 302 307 318 321 314 302 295 290 327 331 327 325 324 322 318 314 309 306 298 294 293 291 290 288 287 287 285 285 283 282 281 282 284 270 256 251 248 247 247
63 130 155 151 141 129 126 128 133 140 144 154 152 136 142 142 143 138 137 133 130 129 136 136 140 147 190 219 229 235 257 344 24 13 353 322 318 310 304 294 294 292 290 293 296 303 298 316 327 327 328 326 323 321 313 327 331 328 327 325 322 318 315 309 304 299 298 292 289 287 283 282 281 281 281 281 281 280 277 275 269 257 254 253 246
154 151 154 155 150 145 132 129 137 137 141 142 163 135 138 138 141 143 146 140 136 136 137 137 138 165 194 213 220 172 59 43 40 29 354 326 316 316 305 304 296 291 292 296 302 296 309 325 326 331 333 333 329 320 314 321 329 325 330 330 328 325 323 318 309 297 293 291 287 286 282 281 281 281 281 282 283 279 273 272 268 262 253 241 245
133 136 154 151 131 119 124 130 128 138 139 148 147 152 139 143 138 147 143 138 136 137 137 140 153 178 200 191 163 122 59 40 39 24 339 291 285 295 290 293 283 291 298 293 294 300 326 327 327 330 330 324 322 319 324 312 316 323 333 334 333 331 327 321 315 306 302 298 294 289 286 283 283 280 282 274 265 266 269 268 268 263 244 238 238
163 155 147 146 149 141 144 136 138 153 145 147 140 139 125 133 142 144 137 134 134 134 127 131 150 169 180 103 92 79 67 48 34 360 321 282 280 268 279 279 287 301 298 295 295 317 327 325 328 323 324 327 326 334 336 326 322 333 340 336 335 333 329 322 318 314 307 300 297 292 278 271 269 274 276 277 274 272 270 264 256 249 238 235 237
123 141 133 132 151 151 146 142 140 151 151 144 140 132 129 131 139 137 128 127 131 135 129 138 146 145 112 84 73 43 58 64 45 2 325 316 295 277 280 287 295 299 286 293 303 322 326 326 325 321 325 323 326 341 338 337 344 344 343 339 334 335 329 327 333 327 332 322 320 314 296 276 276 271 271 262 263 260 254 251 239 228 225 226 232
151 156 157 161 161 146 145 139 135 141 141 138 134 129 134 143 138 133 133 135 133 131 128 128 131 121 97 88 73 59 49 45 17 20 271 262 284 295 291 287 300 303 308 316 317 329 328 325 319 325 330 319 339 343 338 345 344 346 348 346 338 340 334 342 345 347 340 328 328 340 358 349 350 340 339 335 335 329 315 268 233 230 232 225 226
122 131 144 126 138 134 137 130 130 137 137 138 137 137 143 142 136 136 142 132 130 126 123 120 124 120 120 92 66 52 51 40 11 346 326 307 256 265 283 300 304 325 333 338 344 337 336 333 322 339 337 344 343 340 342 347 348 349 353 354 350 345 344 351 355 352 343 337 344 346 349 344 341 344 343 341 335 333 333 332 323 267 237 228 226
142 141 149 155 154 137 124 126 135 140 142 141 138 144 144 141 141 144 149 139 131 122 118 123 128 132 128 106 98 69 59 47 16 344 333 323 329 315 288 305 332 339 339 343 348 347 346 348 348 343 336 348 347 346 348 350 351 354 357 358 357 351 348 356 359 355 343 357 353 353 347 342 341 339 342 338 332 329 329 327 324 327 315 258 229